Regional Weather Roundup
Issued by NWS

Home | Current Version | Previous Version | Graphics & Text | Print | Product List | Glossary On
Versions: 1 2 3 4 5 6 7 8 9 10 11 12 13 14 15 16 17 18 19 20 21 22 23 24 25 26 27 28 29 30 31 32 33 34 35 36 37 38 39 40 41 42 43 44 45 46 47 48 49 50
000
ASUS43 KDMX 191001
RWRIA

WEATHER ROUNDUP FOR IOWA
NATIONAL WEATHER SERVICE DES MOINES IA
500 AM CDT THU OCT 19 2017

NOTE: "FAIR" INDICATES FEW OR NO CLOUDS BELOW 12,000 FEET WITH NO
SIGNIFICANT WEATHER AND/OR OBSTRUCTIONS TO VISIBILITY.

* - THESE STATIONS ARE NOT NWS STATIONS...THUS NOT UNDER NWS
QUALITY CONTROL.  THEY ALSO DO NOT REPORT WEATHER SUCH
AS PRECIPITATION OR FOG.

IAZ001>003-012>014-020>022-031>034-043>046-191100-
   NORTHWEST IOWA

CITY           SKY/WX    TMP DP  RH WIND       PRES   REMARKS
CARROLL *      CLOUDY    48  48 100 CALM      30.08R
CHEROKEE *     CLOUDY    37  37 100 CALM      30.07R
DENISON *      CLOUDY    41  39  93 N3        30.08S
LE MARS *      CLOUDY    37  36  93 CALM      30.06S
ORANGE CITY *  CLOUDY    46  36  66 E3        30.05S
SHELDON *      CLOUDY    36  34  93 S6        30.04F WCI  31
SIOUX CITY     CLOUDY    40  38  93 NE3       30.06S
SPENCER        CLOUDY    35  33  92 CALM      30.07R
STORM LAKE *   CLOUDY    43  34  70 SE7       30.07S
$$

IAZ055>058-069>071-079>083-090>094-191100-
   SOUTHWEST IOWA

CITY           SKY/WX    TMP DP  RH WIND       PRES   REMARKS
ATLANTIC *     CLEAR     41  41 100 NE3       30.07S
AUDUBON *      CLOUDY    37  36  93 CALM      30.08S
CLARINDA *       N/A     45  45 100 CALM      30.08R
COUNCIL BLFS * CLEAR     48  48 100 E5        30.04S
CRESTON *      CLEAR     50  46  87 NE5       30.08R
HARLAN  *      CLOUDY    41  39  93 CALM      30.10S
LAMONI         CLEAR     50  48  93 CALM      30.07R
RED OAK *      CLEAR     45  45 100 NE5       30.06R
SHENANDOAH *   CLEAR     45  45 100 NE5       30.06R
$$

IAZ047>049-059>061-072>074-084-191100-
   CENTRAL IOWA

CITY           SKY/WX    TMP DP  RH WIND       PRES   REMARKS
AMES           CLEAR     40  40 100 CALM      30.08R
ANKENY *       CLEAR     43  41  93 CALM      30.09R
BOONE *        CLEAR     46  37  71 E6        30.07S
CHARITON *     CLEAR     46  45  93 NE6       30.07S
DES MOINES     CLEAR     54  41  61 E10       30.08R
KNOXVILLE *    CLEAR     50  46  87 CALM      30.07R
MARSHALLTOWN   CLOUDY    43  41  93 CALM      30.09R
NEWTON *       CLEAR     50  41  71 NE7       30.09R
PELLA *        CLEAR     49  47  93 CALM      30.09R
PERRY *          N/A     40  40  99 N3        30.08R
$$

IAZ004>006-015-016-023>025-035-036-191100-
   NORTH CENTRAL IOWA

CITY           SKY/WX    TMP DP  RH WIND       PRES   REMARKS
ALGONA *       CLOUDY    39  37  93 SE3       30.07S
CLARION *      CLOUDY    43  36  75 E8        30.08S
ESTHERVILLE    CLOUDY    39  35  86 S8        30.06S WCI  33
FORT DODGE *   CLOUDY    38  35  89 CALM      30.09R
MASON CITY     CLOUDY    38  33  82 CALM      30.09S
FOREST CITY *    N/A     37  36  93 CALM      30.07S
WEBSTER CITY * CLEAR     37  36  93 CALM      30.06S
IOWA FALLS *     N/A     43  35  75 CALM      30.09R
$$

IAZ007>011-017>019-026>030-037>042-050>054-066-191100-
   NORTHEAST IOWA

CITY           SKY/WX    TMP DP  RH WIND       PRES   REMARKS
CEDAR RAPIDS   CLOUDY    49  42  77 NE5       30.08R
CHARLES CITY * CLOUDY    39  36  87 CALM      30.08R
CLINTON *      CLEAR     47  44  90 W5        30.09R
DECORAH *      CLOUDY    46  28  49 CALM      30.07R
DUBUQUE        CLOUDY    50  37  61 NE10      30.09R
MONTICELLO *   CLOUDY    41  41 100 CALM      30.09R
OELWEIN *      CLOUDY    46  32  57 NE7       30.08S
WATERLOO       CLOUDY    38  35  89 CALM      30.08R
$$

IAZ064-065-067-068-078-191100-
   EAST CENTRAL IOWA

CITY           SKY/WX    TMP DP  RH WIND       PRES   REMARKS
DAVENPORT      CLEAR     46  44  93 NW5       30.10R
IOWA CITY      CLEAR     46  43  89 CALM      30.09R
MUSCATINE *    CLEAR     46  45  93 CALM      30.09R
QUAD CITIES    CLEAR     49  43  80 CALM      30.08R
$$

IAZ062-063-075>077-085>089-095>099-191100-
   SOUTHEAST IOWA

CITY           SKY/WX    TMP DP  RH WIND       PRES   REMARKS
BURLINGTON     CLEAR     52  47  83 W3        30.08R
FAIRFIELD *    CLEAR     50  46  87 W5        30.08R
FORT MADISON * CLEAR     54  48  82 SW5       30.09R
KEOKUK *       CLEAR     52  46  82 SW5       30.08R
OSKALOOSA *      N/A     46  44  95 CALM      30.09R
OTTUMWA        CLEAR     50  47  89 NW3       30.08R
WASHINGTON *   CLEAR     48  46  93 NW5       30.09R
$$

ABBREVIATIONS USED IN REMARKS
   TC - TEMPERATURES IN CELSIUS
  WCI - WIND CHILL INDEX
   HX - HEAT INDEX
  VSB - VISIBILITY
$$





USA.gov is the U.S. government's official web portal to all federal, state and local government web resources and services.